Wind_Speed
5 6 7 7 8 9 9 10 11 12 12 12 12 13 13 13 13 14 14 14 15 15 15 16 16 17 17 16 16 16 16 16 16 16 16 16 17 17 17 17 18 18 18
5 6 7 8 8 9 10 11 12 13 13 13 14 14 14 14 14 15 15 15 15 16 16 16 17 18 18 18 18 18 18 18 18 19 19 19 19 19 19 20 20 20 20
5 6 7 8 9 10 11 12 13 13 13 13 13 13 14 14 14 14 14 15 15 15 16 16 17 18 18 19 19 20 20 20 20 21 21 21 21 22 22 22 22 23 23
7 8 9 10 11 12 12 13 13 13 13 13 12 13 13 13 13 13 13 14 14 15 15 16 17 18 19 20 20 21 22 22 22 23 23 24 24 24 25 25 25 25 26
9 10 10 11 12 12 12 12 12 12 12 12 12 12 12 12 12 12 13 13 14 14 15 16 17 17 19 20 21 21 22 23 24 24 25 26 26 27 28 28 28 29 29
10 11 12 12 12 12 12 12 11 11 11 11 11 11 11 12 12 13 13 14 14 15 16 16 17 18 19 20 21 22 23 23 24 25 26 27 28 29 29 30 31 31 32
11 12 12 12 13 12 12 11 11 10 10 11 11 12 12 12 13 14 14 15 15 16 16 17 18 19 19 20 21 22 23 24 25 26 27 28 29 30 31 32 33 34 35
12 13 13 13 12 12 11 10 10 10 11 11 12 12 13 13 14 15 15 16 17 17 18 19 20 21 22 23 24 25 26 27 27 28 29 29 30 31 32 33 34 35 36
13 13 13 12 12 11 11 10 10 11 11 12 12 13 14 14 15 16 17 17 18 19 20 21 22 23 24 25 27 28 29 29 30 31 32 32 33 33 34 34 35 36 37
13 13 13 12 12 11 11 11 11 11 12 12 13 13 14 15 16 16 17 18 19 20 21 22 23 24 26 27 28 30 31 32 33 34 35 36 36 37 37 38 38 39 39
14 13 13 13 12 12 12 12 12 12 12 13 13 14 15 15 16 17 18 19 20 21 22 22 23 25 26 27 29 30 32 33 35 36 37 38 39 40 41 41 42 42 43
14 14 14 13 14 14 14 14 14 14 14 14 15 15 16 17 18 19 19 21 22 23 23 24 25 26 27 29 30 31 33 34 35 37 39 40 42 43 44 44 45 46 46
16 16 16 15 16 16 16 16 16 16 17 17 18 18 19 20 20 21 22 23 24 25 26 27 28 29 30 31 32 33 34 36 37 38 40 41 43 45 46 47 48 49 50
18 19 18 18 18 19 18 18 19 20 20 20 21 21 22 23 23 24 26 27 28 29 30 31 32 33 34 35 36 37 37 38 39 40 41 43 44 46 47 48 50 51 52
20 21 21 21 21 22 21 22 22 23 23 24 24 25 25 26 27 28 29 30 31 32 33 34 35 36 38 39 40 41 42 42 43 43 43 44 45 46 48 50 51 53 54
23 23 24 24 25 25 25 26 26 26 26 27 28 29 29 30 31 32 32 34 35 36 37 38 39 40 41 42 43 44 45 46 47 47 47 47 47 48 49 50 52 53 55
25 26 26 27 28 28 29 29 29 30 30 31 32 33 33 34 35 35 36 37 38 39 41 42 43 44 45 46 47 48 49 50 50 51 51 50 50 50 50 51 52 53 55
28 28 29 30 30 31 32 33 33 33 33 34 35 37 38 38 39 39 40 41 42 43 44 46 47 48 49 50 51 52 53 54 54 55 54 53 53 52 53 53 54 54 55
30 30 31 31 32 34 35 36 36 36 36 38 39 40 41 42 43 44 44 45 46 47 48 50 51 52 53 54 54 55 56 57 57 57 57 56 55 55 55 55 55 55 56
32 32 32 34 35 37 37 38 39 39 40 42 43 43 44 45 47 48 48 49 50 51 52 54 55 56 57 57 58 58 59 59 60 59 59 58 57 57 57 57 57 57 58
31 33 34 35 37 39 40 40 41 42 44 44 45 45 47 48 51 52 52 53 54 55 56 57 59 60 60 61 61 61 61 61 61 60 60 59 59 59 59 59 59 59 59
30 32 34 35 37 39 41 42 43 44 45 46 46 48 50 52 54 55 56 56 57 58 59 60 62 63 63 64 64 64 62 61 60 60 59 59 60 60 60 60 60 60 60
30 31 33 35 36 38 41 43 44 46 47 48 49 51 53 55 55 56 58 59 60 61 61 62 64 65 65 65 64 63 63 62 61 59 58 58 59 59 59 60 60 60 61
30 31 33 35 37 39 41 43 45 47 48 49 51 53 54 56 57 58 59 61 62 63 64 65 65 65 65 65 64 63 62 62 61 61 59 59 59 59 59 60 60 60 61
31 32 34 36 38 40 41 44 46 47 49 51 53 54 56 57 58 59 60 62 63 65 66 66 66 65 64 64 64 62 61 62 61 62 61 60 61 60 60 60 60 60 61
33 34 35 37 39 41 42 44 46 48 50 52 54 55 57 58 58 59 61 63 64 65 66 67 66 65 65 64 64 63 63 63 62 62 62 62 62 61 61 60 61 61 62
Wind_Direction
286 288 287 286 287 287 288 289 289 288 288 287 287 287 287 288 288 289 288 288 287 286 285 284 282 282 281 280 278 276 273 272 271 270 269 269 268 266 263 261 259 258 257
290 290 289 290 290 291 292 292 291 290 290 290 290 290 290 290 291 291 291 289 288 287 285 284 282 282 281 280 278 277 275 273 272 270 270 269 268 267 266 264 263 261 260
296 294 293 293 293 293 293 293 292 292 292 292 292 292 293 293 293 293 292 291 290 288 286 284 283 282 281 280 279 277 276 274 273 271 270 269 268 267 266 265 264 263 262
295 294 293 294 294 295 295 295 294 294 294 294 294 295 295 296 295 295 294 293 291 289 287 285 284 283 282 281 280 278 277 276 274 272 271 269 268 267 266 265 265 264 263
291 292 293 294 295 296 296 296 296 295 296 296 298 299 300 301 300 299 297 296 294 292 290 288 287 286 285 284 282 281 280 278 276 275 273 271 269 268 267 266 265 264 264
288 290 291 292 293 294 294 294 295 297 298 300 301 302 303 302 302 301 300 299 297 295 293 292 291 289 288 287 286 285 284 282 280 278 276 274 272 270 269 267 267 266 265
285 286 288 289 290 291 293 294 296 298 300 303 304 306 307 307 306 306 304 303 302 300 299 297 295 293 292 290 289 288 287 286 284 282 280 278 276 274 272 270 269 268 266
284 283 284 286 287 288 289 291 294 298 302 305 307 309 310 310 311 310 309 308 306 305 303 301 300 298 296 294 292 290 289 288 286 285 283 281 280 278 276 275 273 271 270
282 281 281 282 282 283 286 289 294 298 303 306 309 311 314 315 315 314 313 311 309 307 306 304 302 301 299 297 295 293 291 289 288 286 285 283 282 280 279 278 276 275 273
280 279 279 280 279 281 284 289 294 299 304 308 311 314 316 317 317 316 315 314 312 311 309 307 305 303 301 299 297 294 293 291 289 287 285 284 282 281 280 279 277 276 275
278 277 276 276 277 279 283 288 292 296 302 306 310 312 313 314 315 315 315 314 313 312 310 309 307 306 304 302 299 297 294 292 289 287 285 283 281 280 279 278 277 276 275
275 274 273 272 275 278 282 285 289 293 298 302 304 306 307 308 309 309 309 309 309 308 308 307 307 306 305 304 303 300 297 294 291 288 286 283 281 279 278 277 276 275 274
273 273 273 274 275 277 280 283 286 289 293 295 297 299 300 301 302 302 303 303 303 303 304 304 304 304 304 304 304 303 301 298 294 290 287 284 282 279 277 276 275 274 273
273 273 275 276 276 277 278 280 283 286 288 291 293 294 296 297 298 298 299 299 299 300 300 300 301 302 302 302 302 302 302 300 298 294 290 286 283 280 278 276 274 273 272
273 274 275 275 275 276 277 278 281 283 285 288 290 291 293 294 295 296 297 297 297 298 298 298 298 299 300 300 301 301 301 300 299 296 293 289 285 282 279 277 275 273 272
273 273 274 274 274 274 275 276 279 281 283 285 287 288 289 290 292 293 294 295 296 297 297 298 298 298 299 299 300 300 300 300 299 297 295 291 288 285 282 279 277 275 273
274 274 274 273 274 274 274 275 277 278 280 282 284 286 287 288 289 291 292 294 295 296 297 297 297 298 298 298 299 299 299 299 299 298 296 293 289 286 284 281 279 277 275
277 276 275 274 274 273 273 274 275 276 278 279 281 283 286 287 289 290 292 293 294 295 296 296 297 297 298 298 298 299 299 299 299 299 297 294 291 288 286 283 281 279 277
278 276 275 274 273 273 272 273 274 275 276 277 279 282 285 287 289 290 291 293 294 295 295 296 297 297 297 297 298 298 298 298 298 298 296 294 291 289 287 285 283 281 279
279 277 275 273 272 272 272 273 274 275 275 277 280 283 285 287 288 290 292 293 294 294 294 295 296 296 296 297 297 297 297 297 297 297 296 294 292 290 289 287 285 284 282
282 280 278 275 274 274 274 274 275 276 277 280 282 284 285 285 287 290 292 292 293 294 294 295 295 296 296 296 297 297 296 296 296 295 295 294 292 291 290 288 287 286 285
285 283 281 279 277 277 277 276 277 278 279 281 282 282 283 284 287 289 291 292 292 293 293 294 294 295 295 296 297 296 296 295 294 293 294 293 292 291 290 289 288 287 286
289 286 284 283 281 280 280 279 279 279 279 280 281 281 283 285 287 288 289 290 291 291 292 293 293 294 295 296 296 296 296 295 293 292 292 292 291 290 290 290 289 289 288
292 289 286 284 283 281 281 281 280 280 281 281 281 282 283 285 286 287 288 289 290 290 291 292 293 294 295 296 296 296 296 295 295 294 293 292 291 291 290 290 290 290 289
293 290 288 286 284 283 282 282 282 282 281 281 281 282 283 283 284 286 287 288 289 289 290 291 292 293 295 296 296 296 296 296 296 295 294 294 292 292 291 291 290 290 290
294 292 290 288 286 285 284 283 283 282 282 282 282 283 283 283 284 285 286 287 288 289 290 291 292 293 294 295 296 296 296 297 297 296 294 293 292 292 292 292 291 291 291
Height
5872 5872 5872 5872 5873 5873 5873 5873 5873 5873 5872 5872 5872 5872 5872 5872 5872 5871 5872 5872 5872 5872 5872 5872 5872 5872 5872 5873 5873 5874 5875 5875 5876 5876 5877 5878 5878 5879 5880 5881 5881 5882 5883
5871 5871 5871 5871 5871 5871 5871 5871 5871 5871 5871 5870 5870 5870 5869 5869 5869 5869 5869 5869 5869 5869 5869 5869 5869 5869 5869 5870 5870 5871 5871 5872 5873 5873 5874 5874 5875 5875 5876 5877 5878 5879 5879
5870 5870 5870 5870 5870 5870 5870 5869 5869 5869 5868 5868 5868 5867 5867 5867 5867 5866 5866 5866 5866 5866 5866 5866 5866 5866 5866 5867 5867 5867 5868 5868 5869 5870 5870 5871 5871 5872 5872 5873 5874 5874 5875
5868 5868 5868 5868 5868 5868 5868 5867 5867 5866 5866 5866 5865 5865 5865 5865 5864 5864 5864 5864 5864 5864 5864 5863 5863 5863 5863 5863 5863 5863 5864 5864 5865 5865 5866 5866 5867 5867 5868 5868 5869 5870 5870
5867 5867 5867 5866 5866 5866 5865 5865 5865 5864 5864 5864 5863 5863 5862 5862 5862 5862 5861 5861 5861 5861 5861 5861 5860 5860 5860 5860 5859 5859 5859 5860 5860 5860 5861 5861 5862 5862 5862 5863 5864 5864 5865
5865 5865 5865 5864 5864 5864 5863 5863 5863 5862 5862 5861 5861 5861 5860 5860 5860 5859 5859 5858 5858 5858 5858 5857 5857 5857 5856 5856 5855 5855 5855 5855 5855 5855 5856 5856 5856 5857 5857 5857 5858 5858 5859
5864 5863 5863 5862 5862 5861 5861 5861 5860 5860 5860 5859 5859 5858 5858 5857 5857 5857 5856 5855 5855 5854 5854 5854 5853 5853 5853 5852 5852 5851 5851 5850 5850 5850 5850 5850 5850 5850 5850 5851 5851 5851 5852
5862 5861 5861 5861 5860 5860 5859 5859 5859 5858 5858 5857 5857 5856 5855 5855 5854 5854 5853 5852 5852 5851 5850 5850 5849 5849 5848 5847 5847 5846 5846 5845 5845 5845 5844 5844 5844 5844 5843 5843 5844 5844 5844
5859 5859 5859 5859 5858 5858 5857 5857 5857 5856 5856 5855 5854 5854 5853 5852 5851 5851 5850 5849 5849 5848 5847 5846 5845 5844 5843 5842 5841 5841 5840 5839 5839 5838 5838 5837 5837 5836 5836 5836 5836 5836 5836
5857 5857 5857 5856 5856 5856 5856 5855 5855 5854 5853 5853 5852 5851 5850 5849 5849 5848 5847 5846 5845 5844 5843 5842 5841 5840 5838 5837 5836 5835 5834 5833 5832 5831 5830 5830 5829 5829 5828 5828 5828 5828 5828
5855 5855 5855 5854 5854 5854 5853 5853 5852 5852 5851 5850 5850 5849 5848 5847 5846 5845 5844 5843 5842 5841 5840 5839 5837 5836 5834 5833 5831 5830 5828 5827 5825 5824 5823 5822 5821 5820 5820 5819 5819 5819 5819
5852 5852 5852 5852 5852 5851 5851 5850 5850 5849 5848 5848 5847 5846 5845 5844 5843 5842 5841 5840 5839 5837 5836 5835 5833 5832 5830 5828 5826 5824 5822 5820 5818 5817 5815 5814 5812 5811 5810 5810 5809 5809 5809
5850 5849 5849 5849 5849 5848 5848 5847 5847 5846 5845 5845 5844 5843 5842 5841 5840 5839 5837 5836 5835 5833 5832 5830 5828 5826 5824 5822 5820 5818 5816 5813 5811 5809 5807 5805 5803 5802 5801 5800 5799 5798 5798
5846 5846 5846 5845 5845 5845 5845 5844 5843 5843 5842 5841 5840 5839 5838 5837 5836 5834 5833 5831 5830 5828 5826 5824 5822 5820 5818 5816 5813 5811 5809 5806 5803 5801 5798 5796 5794 5792 5790 5789 5788 5787 5787
5843 5842 5842 5842 5841 5841 5840 5840 5839 5838 5837 5836 5835 5834 5833 5831 5830 5829 5827 5826 5824 5822 5820 5818 5816 5813 5811 5808 5805 5803 5800 5797 5794 5792 5789 5786 5783 5781 5779 5778 5776 5775 5774
5839 5838 5837 5837 5836 5836 5835 5835 5834 5833 5832 5831 5830 5828 5827 5825 5824 5822 5821 5819 5817 5815 5812 5810 5807 5805 5802 5799 5796 5793 5790 5787 5784 5781 5778 5775 5772 5769 5767 5765 5764 5762 5761
5834 5833 5833 5832 5831 5830 5829 5829 5828 5827 5826 5825 5823 5821 5820 5818 5817 5815 5813 5811 5808 5806 5803 5801 5798 5795 5792 5789 5786 5783 5779 5776 5772 5769 5766 5763 5760 5757 5754 5752 5750 5748 5747
5829 5828 5827 5826 5825 5824 5823 5822 5821 5820 5819 5818 5816 5814 5812 5810 5809 5807 5805 5802 5800 5797 5794 5791 5788 5784 5781 5778 5774 5771 5767 5764 5760 5756 5752 5749 5746 5743 5740 5737 5735 5733 5731
5822 5821 5821 5819 5818 5817 5816 5814 5814 5813 5812 5810 5808 5806 5804 5801 5799 5797 5795 5793 5790 5787 5783 5780 5776 5773 5770 5766 5762 5759 5755 5751 5747 5743 5738 5734 5731 5728 5725 5722 5719 5717 5715
5815 5814 5813 5812 5810 5809 5808 5807 5805 5804 5803 5801 5799 5798 5795 5792 5789 5787 5785 5782 5779 5776 5772 5768 5764 5760 5756 5753 5750 5746 5742 5737 5733 5728 5724 5719 5716 5712 5709 5706 5703 5701 5698
5808 5806 5805 5804 5802 5801 5800 5799 5797 5796 5794 5793 5791 5789 5786 5782 5779 5775 5773 5770 5767 5764 5760 5755 5751 5747 5743 5738 5735 5731 5728 5723 5719 5714 5709 5704 5700 5696 5693 5689 5687 5684 5681
5800 5798 5797 5796 5795 5793 5791 5790 5789 5787 5786 5784 5782 5779 5775 5772 5768 5765 5761 5758 5754 5750 5747 5742 5737 5733 5729 5724 5720 5715 5712 5709 5705 5700 5695 5690 5685 5681 5677 5673 5670 5667 5664
5793 5791 5789 5787 5786 5785 5782 5781 5779 5777 5776 5774 5771 5767 5764 5760 5757 5753 5749 5744 5740 5736 5733 5728 5723 5719 5714 5710 5705 5700 5695 5691 5688 5686 5682 5677 5671 5666 5662 5657 5653 5650 5646
5785 5783 5780 5778 5776 5775 5772 5771 5768 5767 5765 5763 5759 5755 5752 5748 5744 5740 5736 5731 5726 5722 5718 5713 5709 5704 5699 5694 5690 5686 5680 5675 5670 5666 5664 5660 5655 5651 5646 5642 5637 5633 5629
5777 5775 5772 5769 5767 5764 5762 5760 5757 5755 5752 5749 5745 5742 5739 5735 5730 5726 5722 5717 5712 5707 5703 5698 5693 5689 5684 5679 5674 5669 5665 5659 5655 5650 5646 5642 5637 5633 5629 5626 5621 5616 5612
5769 5766 5763 5760 5757 5754 5751 5748 5745 5742 5738 5735 5731 5728 5724 5720 5717 5712 5707 5702 5697 5692 5687 5683 5678 5673 5669 5664 5658 5653 5649 5644 5640 5634 5629 5625 5621 5617 5612 5609 5604 5599 5595